User: anonymous   Login
Location: Unspecified
(20.0000°S, 0.0000°E)
Time: 11:38:40
(UTC+00:00)
Language:

DOVE 4 - Orbit

View from above orbital plane
View from above orbital plane
View from above satellite
View from above satellite

Ground track
Ground track

The orbit data is extracted from the following two-line orbital elements,

1 39430U 13066Q   19229.20950249  .00000119  00000-0  30245-4 0  9998
2 39430  97.7510 181.8561 0152483  66.6949 295.0212 14.59270485305287
Epoch (UTC): 17 August 2019 05:01:41
Eccentricity: 0.0152483
inclination: 97.7510°
perigee height: 587 km
apogee height: 803 km
right ascension of ascending node: 181.8561°
argument of perigee: 66.6949°
revolutions per day: 14.59270485
mean anomaly at epoch: 295.0212°
orbit number at epoch: 30528

The dashed part of the orbit path shows where the satellite is in the earth's shadow,  

DLR